Home > Weather > Brownsville > Past weeks

Flag for USA Past Weather in Brownsville, Texas, USA — Yesterday and Last 2 Weeks

Now
84 °F

Sunny.


Feels Like: 91 °F
Forecast: 76 / 92 °F
Wind: 13 mph from Northeast

Location: Brownsville / South Padre Island International Airport

Current Time: Aug 29, 2016 at 8:39:47 PM

Latest Report: Aug 29, 2016 at 7:53 PM


Visibility: 10 mi

Pressure: 29.83 "Hg

Humidity: 72%

Dew Point: 74 °F

Location of BrownsvilleLocation

Past Weather in Brownsville — Graph

°F

Brownsville Temperature Yesterday

Maximum temperature yesterday: 96 °F (at 1:53 PM)
Minimum temperature yesterday: 75 °F (at 5:53 AM)
Average temperature yesterday: 84 °F

High & Low Weather Summary for the Past Weeks

 TemperatureHumidityPressure
High96 °F (Aug 28, 1:53 PM)100% (Aug 18, 6:53 AM)30.13 "Hg (Aug 18, 6:53 AM)
Low75 °F (Aug 16, 7:53 AM)41% (Aug 23, 12:53 PM)29.78 "Hg (Aug 20, 6:53 PM)
Average85 °F75%29.95 "Hg
* Reported Aug 14 6:53 PM — Aug 29 6:53 PM, Brownsville, Weather by CustomWeather, © 2016

Note: Actual official high and low records may vary slightly from our data, if they occured in-between our weather recording intervals... More about our weather records

Advertising

Brownsville Weather History for the Previous 24 Hours

Scroll right to see more
 ConditionsComfort  
Time TempWeatherWind HumidityBarometerVisibility
6:53 PM
Mon, Aug 29
88 °FSunny.13 mph61%29.82 "Hg10 mi
5:53 PM92 °FSunny.14 mph56%29.82 "Hg10 mi
4:53 PM93 °FPassing clouds.17 mph54%29.81 "Hg10 mi
3:53 PM91 °FPartly sunny.16 mph57%29.83 "Hg10 mi
2:53 PM92 °FPartly sunny.17 mph52%29.85 "Hg10 mi
1:53 PM94 °FPartly sunny.10 mph46%29.87 "Hg10 mi
12:53 PM96 °FScattered clouds.13 mph44%29.89 "Hg10 mi
11:53 AM94 °FScattered clouds.13 mph48%29.91 "Hg10 mi
10:53 AM93 °FPassing clouds.9 mph52%29.92 "Hg10 mi
9:53 AM87 °FPassing clouds.8 mph69%29.92 "Hg10 mi
8:53 AM83 °FSunny.7 mph79%29.92 "Hg10 mi
7:53 AM78 °FClear.3 mph93%29.90 "Hg10 mi
6:53 AM76 °FClear.5 mph97%29.89 "Hg10 mi
5:53 AM77 °FClear.3 mph94%29.87 "Hg10 mi
4:53 AM77 °FClear.3 mph94%29.87 "Hg10 mi
3:53 AM78 °FClear.No wind90%29.87 "Hg10 mi
2:53 AM78 °FClear.No wind90%29.89 "Hg10 mi
1:53 AM79 °FClear.No wind88%29.90 "Hg10 mi
12:53 AM79 °FClear.3 mph88%29.91 "Hg10 mi
11:53 PM
Sun, Aug 28
80 °FClear.No wind85%29.93 "Hg10 mi
10:53 PM81 °FClear.No wind82%29.92 "Hg10 mi
9:53 PM82 °FClear.3 mph79%29.90 "Hg10 mi
8:53 PM83 °FClear.8 mph79%29.88 "Hg10 mi
Weather by CustomWeather, © 2016

See weather overviewHow to use our weather pages